Regional Weather Roundup
Issued by NWS

Home | Current Version | Previous Version | Graphics & Text | Print | Product List | Glossary Off
Versions: 1 2 3 4 5 6 7 8 9 10 11 12 13 14 15 16 17 18 19 20 21 22 23 24 25 26 27 28 29 30 31 32 33 34 35 36 37 38 39 40 41 42 43 44 45 46 47 48 49 50

607
ASUS43 KDTX 222010
RWRMI
MICHIGAN HOURLY REGIONAL WEATHER ROUNDUP
NATIONAL WEATHER SERVICE DETROIT/PONTIAC MI
400 PM EDT SUN APR 22 2018

NOTE: "FAIR" INDICATES FEW OR NO CLOUDS BELOW 12,000 FEET WITH NO
SIGNIFICANT WEATHER AND/OR OBSTRUCTION TO VISIBILITY.

MIZ047>049-052>055-059>063-066>070-074>076-081>083-222100-
SOUTHEAST LOWER MICHIGAN

CITY           SKY/WX    TMP DP  RH WIND       PRES   REMARKS
ADRIAN         FAIR      60  22  23 E13       30.34F
ALMA           FAIR      62  23  23 E6        30.35F
ANN ARBOR      FAIR      60  26  27 NE8       30.34F
BAD AXE        FAIR      61  15  16 E7        30.39F
CARO           FAIR      62  20  19 SE6       30.36F
DETROIT CITY   FAIR      59  24  26 SE9       30.37F
DETROIT        FAIR      61  25  25 E8        30.36F
FLINT          FAIR      63  22  20 CALM      30.35F
GROSSE ILE     FAIR      61  26  26 E12       30.34F
HILLSDALE      FAIR      59  21  23 NE14G23   30.31F
HOWELL         FAIR      61  20  20 E12G21    30.35F

CITY           SKY/WX    TMP DP  RH WIND       PRES   REMARKS
JACKSON        FAIR      62  22  21 E14G22    30.33F
LAMBERTVILLE   FAIR      57  19  22 E12G22    30.35F
LANSING        FAIR      63  25  23 E6        30.34F
LAPEER         FAIR      60  25  26 SE7       30.37S
MASON          FAIR      62  15  15 E12G18    30.34F
MONROE         FAIR      58  21  24 E10G18    30.34F
MT. CLEMENS    MOSUNNY   60  26  27 SE7       30.36F
PONTIAC        PTSUNNY   60  23  24 VRB3      30.35F
PORT HOPE        N/A     48  35  60 E13       30.39F
PORT HURON     FAIR      59  23  25 N8G16     30.37F
TRI CITIES     FAIR      61  25  25 NE8       30.37F
MIDLAND        FAIR      59  25  27 NE8G20    30.37F
TROY           FAIR      61  19  19 E6        30.38F
SAGINAW HB     FAIR      61  28  29 N13       30.35F
$$
MIZ043>046-050>051-056>058-064>065-071>073-077>080-222100-
SOUTHWEST LOWER MICHIGAN

CITY           SKY/WX    TMP DP  RH WIND       PRES   REMARKS
BATTLE CREEK   FAIR      62  26  25 E6G21     30.32F
BENTON HARBOR  FAIR      66  25  21 E10G22    30.29F
BIG RAPIDS     FAIR      62  10  13 E6G12     30.33F
COLDWATER      FAIR      61  26  26 E13G22    30.31F
FREMONT        FAIR      64   0   7 SE7       30.31F
HOLLAND        FAIR      65  27  23 E15       30.32F
GRAND RAPIDS   PTSUNNY   63  28  26 SE15G21   30.32F
IONIA          FAIR      61  23  22 NE6G14    30.33F
KALAMAZOO      FAIR      63  22  20 E8G16     30.32F
LUDINGTON      FAIR      57  27  31 NW8       30.34F
MARSHALL       FAIR      62  20  19 E9        30.31F
MOUNT PLEASANT FAIR      64  24  22 NE9G16    30.34F
MUSKEGON       FAIR      62  27  26 NW7       30.32F
SOUTH HAVEN    FAIR      65  15  14 E14G20    30.30F
$$
MIZ016>042-222100-
NORTHERN LOWER MICHIGAN

CITY           SKY/WX    TMP DP  RH WIND       PRES   REMARKS
ALPENA         FAIR      54  20  26 E9        30.40F
BEAVER ISLAND  FAIR      55  20  25 NW5       30.39F
BELLAIRE       FAIR      60  17  18 N5        30.35F
CADILLAC       FAIR      61  21  21 E3        30.33F
CHARLEVOIX     FAIR      48  24  39 NW6       30.41F
FRANKFORT      FAIR      59  25  26 N6        30.35F
GAYLORD        FAIR      57  14  18 CALM      30.36F
GRAYLING       FAIR      59  24  25 CALM      30.34F
HARBOR SPRINGS FAIR      49  27  42 CALM      30.37F
HOUGHTON LAKE  FAIR      62  19  19 SE8       30.35F
MANISTEE       FAIR      56  22  26 NW13      30.35F
OSCODA         FAIR      53  23  30 E6        30.40F
PELLSTON       FAIR      60  20  21 VRB3      30.37F
ROGERS CITY    FAIR      52  26  37 NE6       30.40F
TRAVERSE CITY  PTSUNNY   53  32  44 NE7       30.34F
$$
MIZ007>008-015-222100-
EASTERN UPPER MICHIGAN

CITY           SKY/WX    TMP DP  RH WIND       PRES   REMARKS
KINROSS        FAIR      58  12  16 S6        30.37F
MACKINAC ISLAN FAIR      52  19  27 E3        30.38F
NEWBERRY       FAIR      52  15  23 SW10      30.37F
S. S. MARIE    FAIR      59  19  21 VRB6      30.36F
MUNISING         N/A     42  32  67 VRB3      30.33F
$$
MIZ004>006-011>014-085-222100-
CENTRAL UPPER MICHIGAN

CITY           SKY/WX    TMP DP  RH WIND       PRES   REMARKS
MANISTIQUE     FAIR      54   8  16 S7        30.38F
ESCANABA       FAIR      52  22  30 SE10      30.37F
MENOMINEE      FAIR      58  22  24 SE13      30.36F
SAWYER-GWINN   SUNNY     59  16  18 S10       30.32F
$$
MIZ001>003-009>011-084-222100-
WESTERN UPPER MICHIGAN

CITY           SKY/WX    TMP DP  RH WIND       PRES   REMARKS
IRON MOUNTAIN  FAIR      63  22  20 S10       30.30F
HOUGHTON       FAIR      53  16  23 E8        30.29F
COPPER HARBOR    N/A     57   8  14 VRB6      30.30F
IRONWOOD       FAIR      59  23  25 S10       30.29F
$$

ABBREVIATIONS USED IN REMARKS
   TC - TEMPERATURE IN CELSIUS
  WCI - WIND CHILL INDEX
   HX - HEAT INDEX
  VSB - VISIBILITY





USA.gov is the U.S. government's official web portal to all federal, state and local government web resources and services.